Zurück zum Katalog

FENGYUN 1C DEB

AktivSSO
NORAD 30475·DEBRIS·🇨🇳 China

Gestartet May 10, 1999 von Taiyuan Satellite Launch Center

Loading…

Nächste Überflüge (nächste 24 Stunden)

TLE

AktuellSource: Space-Track

Epoche: Sep 14, 2026, 08:25 UTC

1 30475U 99025AGN 26257.35096968  .00000881  00000-0  46127-3 0  9992
2 30475  98.7708 299.8941 0042438 222.0298 272.9746 14.16408056  8503

Verfolge FENGYUN 1C DEB in Echtzeit mit AllMySat

Download on the App Store